User: anonymous
Location: Unspecified
(0.0000°N, 0.0000°E)
Time: 02:13:55
(UTC+02:00)
Language:

NOSS 3-3 (A) - Orbit

View from above orbital plane
View from above orbital plane
View from above satellite
View from above satellite

Ground track
Ground track

The orbit data is extracted from the following two-line orbital elements,

1 28537U 05004A   14083.77834815 0.00000000  00000-0  00000-0 0    06
2 28537  63.4327 315.1912 0156000 359.3538   0.6462 13.40642277    06
Epoch (UTC): 24 March 2014 18:40:49
Eccentricity: 0.0156000
inclination: 63.4327°
perigee height: 990 km
apogee height: 1223 km
right ascension of ascending node: 315.1912°
argument of perigee: 359.3538°
revolutions per day: 13.40642277
mean anomaly at epoch: 0.6462°
orbit number at epoch: 0

The dashed part of the orbit path shows where the satellite is in the earth's shadow,  

DLR